Flag for Australia Weather past 2 weeks in Currie, Tasmania, Australia

Now
52 °F

Cool.


Feels Like: 46 °F
Forecast: 54 / 58 °F
Wind: 21 mph from West

Location: King Island Airport

Current Time: May 29, 2015 at 2:34:44 AM

Latest Report: May 29, 2015 at 1:00 AM


Visibility: N/A

Pressure: 29.95 "Hg

Humidity: 66%

Dew point: 41 °F

Location of CurrieLocation

Historic Weather in Currie — Graph

°F

Currie temperature yesterday

Maximum temperature yesterday: 60 °F (at 2:00 PM)
Minimum temperature yesterday: 53 °F (at 10:00 PM)
Average temperature yesterday: 56 °F

Past Weeks' High & Low Weather Summary

 TemperatureHumidityPressure
High64 °F (May 18, 1:00 PM)100% (May 18, 2:00 AM)30.63 "Hg (May 18, 2:00 AM)
Low41 °F (May 18, 3:00 AM)58% (May 18, 1:00 PM)29.67 "Hg (May 20, 4:00 AM)
Average53 °F85%30.28 "Hg
* Reported May 14 1:00 AM — May 29 1:00 AM, Currie, Weather by CustomWeather, © 2015

Note: Actual official high and low records may vary slightly from our data, if they occured in-between our weather recording intervals... More about our weather records

Advertising

Currie weather history for previous 24 hours

 ConditionsComfort  
Time TempWeatherWind HumidityBarometerVisibility
1:00 AM
Fri, May 29
52 °FCool.21 mph66%29.95 "HgN/A
12:00 AM53 °FOvercast.23 mph66%29.94 "HgN/A
11:00 PM
Thu, May 28
54 °FCool.29 mph63%29.93 "HgN/A
10:00 PM53 °FCool.20 mph72%29.92 "HgN/A
9:00 PM53 °FPassing clouds.23 mph67%29.91 "HgN/A
8:00 PM54 °FCool.21 mph68%29.90 "HgN/A
7:00 PM53 °FCool.21 mph79%29.89 "HgN/A
6:00 PM54 °FOvercast.21 mph79%29.87 "HgN/A
5:00 PM54 °FCool.15 mph90%29.85 "HgN/A
4:00 PM54 °FCool.17 mph91%29.85 "HgN/A
3:00 PM55 °FLots of rain. Overcast.28 mph93%29.82 "Hg6 mi
2:00 PM60 °FCool.31 mph73%29.81 "HgN/A
1:00 PM59 °FCool.30 mph79%29.83 "HgN/A
12:00 PM58 °FOvercast.32 mph80%29.85 "HgN/A
11:00 AM59 °FCool.25 mph79%29.88 "HgN/A
10:00 AM60 °FCool.29 mph79%29.89 "HgN/A
9:00 AM59 °FOvercast.30 mph83%29.89 "HgN/A
8:00 AM57 °FCool.18 mph90%29.89 "HgN/A
6:00 AM57 °FOvercast.22 mph90%29.90 "HgN/A
5:00 AM57 °FCool.14 mph93%29.91 "HgN/A
4:00 AM56 °FCool.17 mph93%29.93 "HgN/A
3:00 AM56 °FOvercast.17 mph88%29.94 "HgN/A
2:00 AM57 °FCool.18 mph93%29.93 "HgN/A
Weather by CustomWeather, © 2015

See weather overviewHow to use our weather pages